DW1083 Weather Reports


time (UTC)temp
F
wind
direction
speed
knots
gust
knots
rain 1hr
in
rain 24hr
in
rain mn
in
humidity
%
barometer
mb
20260506220312 46 292 1.7 1.7 0.00 0.09 0.09 95 1010.3
20260506203311 47 315 0.9 2.6 0.01 0.09 0.09 95 1009.7
20260506200311 48 292 1.7 3.5 0.01 0.09 0.09 95 1009.8
20260506193311 49 0 0.0 0.0 0.02 0.08 0.08 96 1009.9
20260506190311 49 0 0.0 0.0 0.02 0.08 0.08 95 1009.2
20260506183311 50 0 0.0 0.0 0.02 0.06 0.06 95 1008.4
20260506180311 50 0 0.0 0.0 0.01 0.06 0.06 95 1008.6
20260506173311 50 0 0.0 0.0 0.00 0.05 0.05 94 1007.8
20260506170310 50 0 0.0 0.0 0.01 0.05 0.05 94 1007.6
20260506160310 51 0 0.0 0.0 0.01 0.04 0.04 94 1007.9
20260506153310 51 0 0.0 0.0 0.02 0.04 0.04 93 1008.0
20260506150311 52 0 0.0 0.0 0.01 0.03 0.03 92 1008.4
20260506140310 53 0 0.0 0.0 0.01 0.02 0.02 88 1008.6
20260506133310 54 0 0.0 0.0 0.00 0.02 0.02 85 1009.2
20260506130310 54 0 0.0 0.0 0.01 0.02 0.02 85 1009.2
20260506123310 54 0 0.0 0.0 0.01 0.02 0.02 84 1009.8
20260506120309 56 270 0.0 1.7 0.00 0.01 0.01 78 1009.8
20260506113309 56 0 0.0 0.0 0.00 0.01 0.01 77 1010.1
20260506110310 56 202 0.0 3.5 0.00 0.01 0.01 77 1010.0
20260506103309 56 157 2.6 5.2 0.00 0.01 0.01 74 1010.2
20260506100309 55 202 0.9 3.5 0.00 0.01 0.01 73 1010.5
20260506093309 54 90 0.0 1.7 0.00 0.01 0.01 78 1010.6
20260506090310 53 0 0.0 0.0 0.01 0.01 0.01 78 1010.6
20260506083309 53 180 0.0 1.7 0.01 0.01 0.01 79 1010.6
20260506080309 53 0 0.0 0.0 0.00 0.00 0.00 76 1010.2
20260506073309 53 135 0.9 2.6 0.00 0.00 0.00 74 1010.4
20260506070308 52 157 0.9 2.6 0.00 0.00 0.00 75 1010.0
20260506050313 48 0 0.0 0.0 0.00 0.00 0.00 79 1009.9
20260506043313 47 0 0.0 0.0 0.00 0.00 0.00 78 1009.8
20260506040313 48 0 0.0 0.0 0.00 0.00 0.00 76 1010.2
20260506033313 48 90 0.9 4.3 0.00 0.00 0.00 77 1009.9
20260506030312 48 112 0.0 4.3 0.00 0.00 0.00 79 1010.2
20260506023312 48 112 0.9 3.5 0.00 0.00 0.00 80 1010.5
20260506020312 48 202 0.9 3.5 0.00 0.00 0.00 81 1010.6
20260506010312 49 180 0.0 2.6 0.00 0.00 0.00 80 1010.6
20260506003312 50 157 1.7 5.2 0.00 0.00 0.00 80 1010.7
20260506000312 50 180 0.9 7.8 0.00 0.00 0.00 82 1010.9
20260505233312 50 90 0.0 2.6 0.00 0.00 0.00 81 1011.0
20260505230312 49 180 0.9 2.6 0.00 0.00 0.00 83 1011.0
20260505223311 49 202 0.9 3.5 0.00 0.00 0.00 85 1011.2